Regional Weather Roundup
Issued by NWS Newport/Morehead, NC

Current Version | Previous Version | Text Only | Print | Product List | Glossary Off
Versions: 1 2 3 4 5 6 7 8 9 10 11 12 13 14 15 16 17 18 19 20 21 22 23 24 25 26 27 28 29 30 31 32 33 34 35 36 37 38 39 40 41 42 43 44 45 46 47 48 49 50
000 ASUS42 KMHX 232313 RWRMHX WEATHER ROUNDUP FOR EASTERN NORTH CAROLINA NATIONAL WEATHER SERVICE NEWPORT/MOREHEAD CITY NC 600 PM EST MON JAN 23 2017 NOTE: "FAIR" INDICATES FEW OR NO CLOUDS BELOW 12,000 FEET WITH NO SIGNIFICANT WEATHER AND/OR OBSTRUCTIONS TO VISIBILITY NCZ015>017-031-032-045>047-102-103-240000- NORTH COAST CITY SKY/WX TMP DP RH WIND PRES REMARKS EDENTON CLOUDY 59 49 68 CALM 29.25R ELIZABETH CITY CLOUDY 56 49 77 W9 29.22F KITTY HAWK NOT AVBL MANTEO PTCLDY 51 51 100 CALM 29.23F $$ NCZ045>047-081-094-103-104-240000- CENTRAL COAST CITY SKY/WX TMP DP RH WIND PRES REMARKS FRISCO LGT RAIN 56 53 90 CALM 29.24R FOG $$ NCZ095-097-098-100-101-240000- SOUTHERN COAST CITY SKY/WX TMP DP RH WIND PRES REMARKS BEAUFORT LGT RAIN 55 53 93 S5 29.25R CEDAR ISLAND NOT AVBL JACKSONVILLE CLOUDY 54 54 100 NW10 29.27R PINEY ISLAND LGT RAIN N/A N/A N/A E6 29.24R WILMINGTON LGT RAIN 54 53 97 W5 29.29R $$ NCZ011>013-027>030-043-044-078>080-089-090>093-098-240000- COASTAL PLAIN CITY SKY/WX TMP DP RH WIND PRES REMARKS AHOSKIE N/A 54 50 87 N10G17 29.28R CLINTON CLOUDY 54 54 100 CALM 29.30R ELIZABETHTOWN MOCLDY 56 49 79 W6 29.29R GOLDSBORO CLOUDY 59 49 68 NW7 29.25R GREENVILLE CLOUDY 61 48 63 N3 29.30R HAVELOCK LGT RAIN 56 52 86 CALM 29.26R KENANSVILLE HVY RAIN 52 52 100 CALM 29.30R FOG KINSTON CLOUDY 55 52 88 SW12 29.28R NEW BERN RAIN 55 52 89 NW6 29.27R RICHLANDS LGT RAIN 52 51 97 CALM 29.28R ROCKY MOUNT PTCLDY 56 48 74 NW9 29.27R WASHINGTON CLOUDY 57 49 75 CALM N/A WHITEVILLE CLOUDY 55 50 82 W5 29.30R $$ AMZ130-135-150-152-154-156-158-170-250-252-270-ANZ085-086-088-633-658-670-240000- MARINE OBSERVATIONS STATION/POSITION TIME TEMP WIND PRES WAVE SWELL AIR SEA DIR/SP/G HT/PER HT/PER (UTC) (F) (DEG/KT/KT) (MB) (FT/S) (FT/S) CHESAPEAKE LIGHT NOT AVBL 64 E VA BEACH 2250 56 56 170/ 4/ 6 989.7 11/11 11/11 DUCK 2236 49 46 160/ 8/ 8 989.0 2 E DUCK 2230 47 N/A 8/11 5/11 OREGON INLET 2236 52 50 320/ 3/ 4 989.4 13E OREGON INLT NOT AVBL HATTERAS CG 2236 57 57 CALM / 2 989.9 DIAMOND BUOY 2250 62 76 310/ 14/ 17 989.8 8/11 7/11 CAPE LOOKOUT 2300 55 310/ 5/ 6 990.1 BEAUFORT LAB 2236 54 53 220/ 4/ 6 989.4 30 SE NEW RVR IN 2208 57 68 350/ 6/ 10 990.6 30 SE NEW RVR IN 2243 68 N/A 6/11 3/11 27 SE WRIGHTSVLE 2208 58 68 270/ 17/ 23 988.5 5 SE WRIGHTSVLE 2208 54 54 270/ 10/ 14 990.4 225 S CAPE HAT 2150 71 71 230/ 21/ 27 991.7 13/10 11/10 41 SE CHARLESTON 2150 60 69 280/ 21/ 25 992.0 9/ 8 7/ 8 $$

USA.gov is the U.S. government's official web portal to all federal, state and local government web resources and services.